Weather Service Report


155 
ASUS41 KBTV 250130
RWRBTV
VERMONT REGIONAL WEATHER ROUNDUP
NATIONAL WEATHER SERVICE BURLINGTON VT
800 PM EST FRI NOV 24 2017

NOTE: "FAIR" INDICATES FEW OR NO CLOUDS BELOW 12,000 FEET WITH NO 
SIGNIFICANT WEATHER AND/OR OBSTRUCTIONS TO VISIBILITY.

* THESE REPORTS ARE NOT UNDER NWS QUALITY CONTROL AND/OR DO NOT
  REPORT WEATHER SUCH AS PRECIPITATION AND FOG.

VTZ001>019-250200-
_____VERMONT_____

  
CITY           SKY/WX    TMP DP  RH WIND       PRES   REMARKS
BURLINGTON     CLOUDY    46  25  43 S18G31    29.76S                  
MONTPELIER     CLEAR     35  27  72 S8        29.84R WCI  29          
MORRISVILLE    CLEAR     28  26  92 CALM      29.79S                  
ST. JOHNSBURY*   N/A     30  28  92 MISG      29.81S                  
LYNDONVILLE*   FAIR      33  27  77 CALM      29.82S                  
MIDDLEBURY*    FAIR      44  26  49 S5        29.83S                  
RUTLAND*       CLEAR     33  26  75 SE8       29.85S WCI  26          
SPRINGFIELD    CLEAR     29  27  92 CALM      29.88S                  
HIGHGATE*      FAIR      45  27  50 S13G24    29.72S                  
NEWPORT*       FAIR      36  28  72 S13       29.77S WCI  28          
BENNINGTON     CLEAR     43  23  45 VRB3      29.87R                  
SUTTON*          N/A     30 N/A N/A MISG        N/A                   
ISLAND POND*     N/A     39 N/A N/A NE8         N/A                   
GALLUP MILLS*    N/A     27 N/A N/A MISG        N/A                   
UNION VILLAGE*   N/A     28 N/A N/A MISG        N/A                   

_____LAKE CHAMPLAIN_____

  
CITY           SKY/WX    TMP DP  RH WIND       PRES   REMARKS
BURTON ISLAND*   N/A     46  32  57 S26G38      N/A                   
COLCHESTER RF*   N/A     46  34  61 S36G41      N/A                   
DIAMOND ISL*     N/A     45  30  57 S22G28      N/A                   

$$

NYZ007-026>031-035-052-083-087-250200-
_____NORTHERN NEW YORK_____

  
CITY           SKY/WX    TMP DP  RH WIND       PRES   REMARKS
PLATTSBURGH    PTCLDY    42  28  57 S10       29.73S                  
SARANAC LAKE   CLEAR     40  27  59 SW13      29.70S                  
MASSENA        PTCLDY    45  29  53 S9        29.67S                  
OGDENSBURG*    FAIR      46  29  52 S9G17     29.67S                  
POTSDAM*       CLEAR     46  28  49 SW13G20   29.68S                  
STARK FALLS*     N/A     43 N/A N/A S13         N/A                   
WATERTOWN      MOCLDY    48  27  44 S10G24    29.71S                  
FT DRUM        MOCLDY    42  27  55 SE8       29.70S                  
ALBANY         PTCLDY    44  24  45 S12G18    29.88R                  
GLENS FALLS    CLEAR     29  25  85 S3        29.86R                  

$$
NHZ002-005-011-250200-
_____NEW HAMPSHIRE_____

  
CITY           SKY/WX    TMP DP  RH WIND       PRES   REMARKS
LEBANON        CLEAR     30  26  85 CALM      29.86S                  
KEENE          CLEAR     28  24  85 CALM      29.92R                  
MT WASHINGTON  PTCLDY    34  25  69 W44         N/A  WCI  18          
PLYMOUTH       FAIR      28  26  96 CALM      29.90S                  
WHITEFIELD     CLEAR     26  24  92 CALM      29.82S                  

$$

_____REGIONAL QUEBEC LOCATIONS_____

  
CITY           SKY/WX    TMP DP  RH WIND       PRES   REMARKS
MONTREAL       MOCLDY    39  30  70 SE13      29.68F WCI  32          
QUEBEC CITY    CLOUDY    28  27  93 NE8       29.73F WCI  20          
SHERBROOKE     CLOUDY    37  30  75 SE6       29.74F                  

_____REGIONAL ONTARIO LOCATIONS_____

  
CITY           SKY/WX    TMP DP  RH WIND       PRES   REMARKS
OTTAWA         CLOUDY    45  30  57 S10       29.63S                  

______KEY______
VSB  - VISIBILITY IN MILES
WCI  - WIND CHILL INDEX
HX   - HEAT INDEX
$$
NNNN
  

Return to Home page


Western Regional Climate Center, wrcc@dri.edu